Location: Davayat
(45.9471°N, 3.1105°E)
Time: 14:36:36
(UTC+00:00)

Cosmos 1470 Rocket - Pass Details

Date: 01 December 2020
Orbit: 604 x 633 km, 82.5° (Epoch: 26 January)

Event Time Altitude Azimuth Distance (km) Brightness Sun altitude
Rises 17:06:34 0° 355° (N) 2,874 6.8 -10.6°
Reaches altitude 10° 17:08:51 10° 1° (N) 1,964 5.9 -11.0°
Maximum altitude 17:13:05 51° 77° (ENE) 769 3.6 -11.6°
Drops below altitude 10° 17:17:17 10° 154° (SSE) 1,949 6.0 -12.3°
Sets 17:19:32 0° 160° (SSE) 2,849 7.0 -12.7°
